Weather History for KFSD - September, 2013

Change the Weather History Date:

Saturday, September 14, 2013

  Actual Average Record
Temperature  
Mean Temperature 63 °F 62 °F  
Max Temperature 71 °F 74 °F 97 °F (1939)
Min Temperature 54 °F 50 °F 33 °F (1949)
Degree Days  
Heating Degree Days 2 5  
Month to date heating degree days 9 46  
Since 1 July heating degree days 43 77  
Cooling Degree Days 0 2  
Month to date cooling degree days 94 44  
Year to date cooling degree days 748 669  
Growing Degree Days 12 (Base 50)    
Moisture  
Dew Point 51 °F    
Average Humidity 67    
Maximum Humidity 77    
Minimum Humidity 57    
Precipitation  
Precipitation T in 0.09 in 2.00 in (1928)
Month to date precipitation 0.21 1.35  
Year to date precipitation 20.63 20.74  
Snow  
Snow 0.00 in 0.00 in 0.00 in ()
Month to date snowfall 0.0 0.0  
Since 1 July snowfall 0.0 0.0  
Since 1 September snowfall 0.0 0.0  
Snow Depth 0.00 in    
Sea Level Pressure  
Sea Level Pressure 29.93 in    
Wind  
Wind Speed 12 mph (South)    
Max Wind Speed 22 mph    
Max Gust Speed 30 mph    
Visibility 10 miles    
Events Rain    
T = Trace of Precipitation, MM = Missing Value Source: NWS Daily Summary

Daily Weather History Graph

Daily Weather History Graph

Search for Another Location

Airport or City:

Trip Planner

Search our weather history database for the weather conditions in past years. The results will help you decide how hot, cold, wet, or windy it might be!

Date:

Astronomy

Sep. 14, 2013 Rise Set
Actual Time 7:05 AM CDT 7:38 PM CDT
Civil Twilight 6:36 AM CDT 8:07 PM CDT
Nautical Twilight 6:02 AM CDT 8:41 PM CDT
Astronomical Twilight 5:27 AM CDT 9:16 PM CDT
Moon 4:27 PM CDT (9/14) 1:31 AM CDT (9/14)
Length of Visible Light 13h 30m
Length of Day
12h 32m
Waxing Gibbous, 72% of the Moon is Illuminated
Sep 14
Waxing Gibbous
Sep 19
Full
Sep 26
Last Quarter
Oct 4
New
Oct 11
First Quarter

Hourly Weather History & Observations

Time (CDT) Temp. Dew Point Humidity Pressure Visibility Wind Dir Wind Speed Gust Speed Precip Events Conditions
12:56 AM 57.9 °F 48.0 °F 70% 30.04 in 10.0 mi South 9.2 mph - N/A   Clear
1:56 AM 57.0 °F 48.0 °F 72% 30.05 in 10.0 mi South 8.1 mph - N/A   Clear
2:56 AM 55.9 °F 48.0 °F 75% 30.04 in 10.0 mi South 6.9 mph - N/A   Clear
3:56 AM 55.0 °F 48.0 °F 77% 30.03 in 10.0 mi South 6.9 mph - N/A   Clear
4:56 AM 55.9 °F 48.0 °F 75% 30.02 in 10.0 mi South 10.4 mph - N/A   Partly Cloudy
5:56 AM 55.9 °F 48.0 °F 75% 30.01 in 10.0 mi South 9.2 mph - N/A   Scattered Clouds
6:56 AM 57.9 °F 48.0 °F 70% 30.00 in 10.0 mi South 9.2 mph - N/A   Mostly Cloudy
7:56 AM 57.0 °F 48.9 °F 74% 30.00 in 10.0 mi South 9.2 mph - N/A   Mostly Cloudy
8:56 AM 59.0 °F 48.9 °F 69% 29.99 in 10.0 mi South 12.7 mph - N/A   Mostly Cloudy
9:56 AM 60.1 °F 50.0 °F 69% 29.99 in 10.0 mi South 11.5 mph - 0.00 in   Overcast
10:56 AM 63.0 °F 51.1 °F 65% 29.96 in 10.0 mi South 11.5 mph - 0.00 in   Overcast
11:56 AM 63.0 °F 51.1 °F 65% 29.95 in 10.0 mi South 20.7 mph 27.6 mph 0.00 in   Overcast
12:56 PM 63.0 °F 53.1 °F 70% 29.93 in 10.0 mi South 16.1 mph 20.7 mph 0.00 in   Overcast
1:56 PM 62.1 °F 53.1 °F 72% 29.91 in 10.0 mi South 16.1 mph 23.0 mph 0.00 in Rain Light Rain
2:56 PM 64.9 °F 53.1 °F 65% 29.87 in 10.0 mi South 15.0 mph 20.7 mph 0.00 in   Overcast
3:56 PM 66.0 °F 53.1 °F 63% 29.84 in 10.0 mi South 18.4 mph 24.2 mph N/A   Overcast
4:56 PM 69.1 °F 54.0 °F 58% 29.82 in 10.0 mi South 15.0 mph - N/A   Overcast
5:56 PM 70.0 °F 54.0 °F 57% 29.82 in 10.0 mi SSW 12.7 mph 24.2 mph N/A   Overcast
6:56 PM 70.0 °F 53.1 °F 55% 29.83 in 10.0 mi SSW 10.4 mph - N/A   Overcast
7:56 PM 68.0 °F 54.0 °F 61% 29.80 in 10.0 mi South 12.7 mph - N/A   Mostly Cloudy
8:56 PM 66.0 °F 54.0 °F 65% 29.81 in 10.0 mi South 12.7 mph - N/A   Mostly Cloudy
9:56 PM 66.0 °F 54.0 °F 65% 29.81 in 10.0 mi South 11.5 mph - N/A   Mostly Cloudy
10:56 PM 66.0 °F 55.0 °F 68% 29.80 in 10.0 mi SSW 11.5 mph - N/A   Overcast
11:56 PM 66.0 °F 55.0 °F 68% 29.79 in 10.0 mi SSW 10.4 mph - N/A   Overcast